WIF7XV ENHF-ENHK

Flight info

Callsign WIF7XV
Flight time 0h 7m
Altitude 8000
Route HK
Aircraft DH8B/M-SDFGR/S

Departure

Time 2026-04-26 17:31
Airport Hammerfest Airport (ENHF)

Arrival

Time 2026-04-26 17:38
Airport Hasvik Airport (ENHK)
Time Latitude Longitude Altitude Speed Heading
2026-04-26 17:23 70.68022 23.67487 262 ft 0 kts 234°
2026-04-26 17:28 70.68019 23.67472 262 ft 5 kts 234°
2026-04-26 17:28 70.68043 23.67323 262 ft 12 kts 311°
2026-04-26 17:29 70.68008 23.67067 261 ft 18 kts 236°
2026-04-26 17:29 70.67957 23.66834 260 ft 22 kts 236°
2026-04-26 17:29 70.67828 23.66260 265 ft 25 kts 236°
2026-04-26 17:29 70.67744 23.65861 267 ft 14 kts 258°
2026-04-26 17:30 70.67731 23.65838 264 ft 3 kts 34°
2026-04-26 17:30 70.67745 23.65887 267 ft 0 kts 56°
2026-04-26 17:30 70.67912 23.66633 261 ft 100 kts 55°
2026-04-26 17:30 70.68412 23.68881 534 ft 144 kts 55°
2026-04-26 17:31 70.68998 23.71433 1247 ft 145 kts 46°
2026-04-26 17:31 70.69610 23.73999 1981 ft 158 kts 52°
2026-04-26 17:31 70.70308 23.76674 2666 ft 164 kts 29°
2026-04-26 17:31 70.71378 23.77380 3378 ft 161 kts 343°
2026-04-26 17:32 70.72237 23.75348 4102 ft 163 kts 297°
2026-04-26 17:32 70.72325 23.71887 4883 ft 172 kts 268°
2026-04-26 17:32 70.72100 23.66822 5964 ft 178 kts 268°
2026-04-26 17:32 70.71364 23.59576 7518 ft 194 kts 231°
2026-04-26 17:33 70.69339 23.53350 8031 ft 221 kts 238°
2026-04-26 17:33 70.67504 23.45517 8043 ft 235 kts 238°
2026-04-26 17:33 70.65495 23.37379 8041 ft 250 kts 236°
2026-04-26 17:34 70.61164 23.20286 8052 ft 260 kts 237°
2026-04-26 17:34 70.58953 23.11592 8044 ft 261 kts 237°
2026-04-26 17:34 70.56736 23.02898 8038 ft 262 kts 236°
2026-04-26 17:34 70.54511 22.94234 8032 ft 262 kts 236°
2026-04-26 17:35 70.52316 22.85699 7911 ft 262 kts 237°
2026-04-26 17:35 70.50128 22.77242 7427 ft 254 kts 236°
2026-04-26 17:35 70.48035 22.69196 6860 ft 237 kts 237°
2026-04-26 17:35 70.45941 22.61469 5772 ft 244 kts 225°
2026-04-26 17:36 70.42926 22.56586 4714 ft 244 kts 223°
2026-04-26 17:36 70.41938 22.48947 3774 ft 174 kts 287°
2026-04-26 17:36 70.43005 22.42618 2121 ft 171 kts 313°
2026-04-26 17:36 70.44294 22.37640 1490 ft 149 kts 306°
2026-04-26 17:37 70.45437 22.31814 827 ft 169 kts 303°
2026-04-26 17:37 70.46513 22.26115 950 ft 164 kts 303°
2026-04-26 17:37 70.47630 22.20097 576 ft 178 kts 302°
2026-04-26 17:38 70.48642 22.14115 28 ft 55 kts 299°
2026-04-26 17:38 70.48734 22.13612 30 ft 20 kts 299°
2026-04-26 17:38 70.48756 22.13503 28 ft 4 kts 161°
2026-04-26 17:38 70.48727 22.13652 28 ft 12 kts 120°
2026-04-26 17:39 70.48685 22.13879 27 ft 13 kts 118°
2026-04-26 17:39 70.48639 22.14129 28 ft 14 kts 118°
2026-04-26 17:39 70.48580 22.14450 24 ft 17 kts 119°
2026-04-26 17:39 70.48609 22.14606 19 ft 6 kts 33°
2026-04-26 17:40 70.48616 22.14658 20 ft 0 kts 104°
2026-04-26 17:40 70.48615 22.14663 19 ft 0 kts 120°